contact:dominique.lefevre@mio.osupytheas.fr, maurice.libes@osupytheas.fr, didier.mallarino@osupytheas.fr
Project:EMSO http://www.emso-fr.org/EMSO-France
Depth: 2436.0 m
Title:EMSO Ligure Ouest : Data MII capteur MICROCAT
DateTime_Computer,Latitude,Longitude,Temperature,Conductivity,Pressure,DateTime_Instrument
DateTime_Computer,Latitude,Longitude,degC,S m-1,dbar,DateTime_Instrument
2021-03-03T00:01:52Z,42.805,6.029,13.2990,4.60020,2470.11,2021-3-03T02:02:57Z
2021-03-03T00:04:55Z,42.805,6.029,13.2990,4.60023,2470.11,2021-3-03T02:06:00Z
2021-03-03T00:07:58Z,42.805,6.029,13.2991,4.60007,2470.11,2021-3-03T02:09:04Z
2021-03-03T00:11:02Z,42.805,6.029,13.2987,4.59999,2470.11,2021-3-03T02:12:07Z
2021-03-03T00:14:05Z,42.805,6.029,13.2990,4.60004,2470.11,2021-3-03T02:15:10Z
2021-03-03T00:17:08Z,42.805,6.029,13.2997,4.60026,2470.133,2021-3-03T02:18:13Z
2021-03-03T00:20:11Z,42.805,6.029,13.2991,4.60023,2470.124,2021-3-03T02:21:16Z
2021-03-03T00:23:14Z,42.805,6.029,13.2988,4.60024,2470.087,2021-3-03T02:24:19Z
2021-03-03T00:26:17Z,42.805,6.029,13.2989,4.60012,2470.124,2021-3-03T02:27:22Z
2021-03-03T00:29:20Z,42.805,6.029,13.2984,4.60004,2470.124,2021-3-03T02:30:25Z
2021-03-03T00:32:23Z,42.805,6.029,13.2982,4.60005,2470.087,2021-3-03T02:33:29Z
2021-03-03T00:35:26Z,42.805,6.029,13.2983,4.59996,2470.087,2021-3-03T02:36:32Z
2021-03-03T00:38:30Z,42.805,6.029,13.2986,4.59998,2470.133,2021-3-03T02:39:35Z
2021-03-03T00:41:33Z,42.805,6.029,13.2986,4.60006,2470.087,2021-3-03T02:42:38Z
2021-03-03T00:44:36Z,42.805,6.029,13.2981,4.59994,2470.087,2021-3-03T02:45:41Z
2021-03-03T00:47:39Z,42.805,6.029,13.2982,4.60007,2470.087,2021-3-03T02:48:44Z
2021-03-03T00:50:42Z,42.805,6.029,13.2991,4.60002,2470.1,2021-3-03T02:51:47Z
2021-03-03T00:53:45Z,42.805,6.029,13.2988,4.60003,2470.077,2021-3-03T02:54:50Z
2021-03-03T00:56:48Z,42.805,6.029,13.2986,4.60006,2470.11,2021-3-03T02:57:53Z
2021-03-03T00:59:51Z,42.805,6.029,13.2988,4.59998,2470.087,2021-3-03T03:00:57Z
2021-03-03T01:02:55Z,42.805,6.029,13.2988,4.59995,2470.063,2021-3-03T03:04:00Z
2021-03-03T01:05:58Z,42.805,6.029,13.2991,4.60003,2470.087,2021-3-03T03:07:03Z
2021-03-03T01:09:01Z,42.805,6.029,13.2993,4.60003,2470.063,2021-3-03T03:10:06Z
2021-03-03T01:12:04Z,42.805,6.029,13.2984,4.59994,2470.124,2021-3-03T03:13:09Z
2021-03-03T01:15:07Z,42.805,6.029,13.2985,4.59997,2470.087,2021-3-03T03:16:12Z
2021-03-03T01:18:10Z,42.805,6.029,13.2983,4.60001,2470.053,2021-3-03T03:19:15Z
2021-03-03T01:21:13Z,42.805,6.029,13.2982,4.59996,2470.063,2021-3-03T03:22:18Z
2021-03-03T01:24:16Z,42.805,6.029,13.2988,4.60010,2470.077,2021-3-03T03:25:22Z
2021-03-03T01:27:20Z,42.805,6.029,13.2982,4.59993,2470.1,2021-3-03T03:28:25Z
2021-03-03T01:30:23Z,42.805,6.029,13.2986,4.60007,2470.087,2021-3-03T03:31:28Z
2021-03-03T01:33:26Z,42.805,6.029,13.2990,4.60009,2470.04,2021-3-03T03:34:31Z
2021-03-03T01:36:29Z,42.805,6.029,13.2983,4.59996,2470.077,2021-3-03T03:37:34Z
2021-03-03T01:39:32Z,42.805,6.029,13.2983,4.59994,2470.026,2021-3-03T03:40:37Z
2021-03-03T01:42:35Z,42.805,6.029,13.2982,4.59995,2470.053,2021-3-03T03:43:40Z
2021-03-03T01:45:38Z,42.805,6.029,13.2987,4.59996,2470.053,2021-3-03T03:46:43Z
2021-03-03T01:48:41Z,42.805,6.029,13.2988,4.59998,2470.063,2021-3-03T03:49:46Z
2021-03-03T01:51:44Z,42.805,6.029,13.2983,4.59992,2470.1,2021-3-03T03:52:50Z
2021-03-03T01:54:48Z,42.805,6.029,13.2986,4.59996,2470.063,2021-3-03T03:55:53Z
2021-03-03T01:57:51Z,42.805,6.029,13.2982,4.59997,2470.063,2021-3-03T03:58:56Z
2021-03-03T02:00:54Z,42.805,6.029,13.2989,4.60006,2470.017,2021-3-03T04:01:59Z
2021-03-03T02:03:57Z,42.805,6.029,13.2991,4.59998,2470.063,2021-3-03T04:05:02Z
2021-03-03T02:07:00Z,42.805,6.029,13.2980,4.59994,2470.077,2021-3-03T04:08:05Z
2021-03-03T02:10:03Z,42.805,6.029,13.2984,4.59994,2470.053,2021-3-03T04:11:08Z
2021-03-03T02:13:06Z,42.805,6.029,13.2980,4.59994,2470.017,2021-3-03T04:14:11Z
2021-03-03T02:16:09Z,42.805,6.029,13.2986,4.59999,2470.04,2021-3-03T04:17:15Z
2021-03-03T02:19:13Z,42.805,6.029,13.2982,4.59996,2470.053,2021-3-03T04:20:18Z
2021-03-03T02:22:16Z,42.805,6.029,13.2986,4.59991,2470.04,2021-3-03T04:23:21Z
2021-03-03T02:25:19Z,42.805,6.029,13.2987,4.60003,2470.04,2021-3-03T04:26:24Z
2021-03-03T02:28:22Z,42.805,6.029,13.2984,4.60010,2470.053,2021-3-03T04:29:27Z
2021-03-03T02:31:25Z,42.805,6.029,13.2986,4.59997,2470.04,2021-3-03T04:32:30Z
2021-03-03T02:34:28Z,42.805,6.029,13.2988,4.59998,2469.993,2021-3-03T04:35:33Z
2021-03-03T02:37:31Z,42.805,6.029,13.2982,4.59998,2470.017,2021-3-03T04:38:36Z
2021-03-03T02:40:34Z,42.805,6.029,13.2983,4.59999,2470.017,2021-3-03T04:41:39Z
2021-03-03T02:43:37Z,42.805,6.029,13.2987,4.60004,2469.993,2021-3-03T04:44:43Z
2021-03-03T02:46:41Z,42.805,6.029,13.2988,4.59998,2470.04,2021-3-03T04:47:46Z
2021-03-03T02:49:44Z,42.805,6.029,13.2985,4.59996,2470.03,2021-3-03T04:50:49Z
2021-03-03T02:52:47Z,42.805,6.029,13.2984,4.59996,2470.007,2021-3-03T04:53:52Z
2021-03-03T02:55:50Z,42.805,6.029,13.2987,4.60003,2470.007,2021-3-03T04:56:55Z
2021-03-03T02:58:53Z,42.805,6.029,13.2982,4.59995,2470.007,2021-3-03T04:59:58Z
2021-03-03T03:01:56Z,42.805,6.029,13.2982,4.59996,2470.04,2021-3-03T05:03:01Z
2021-03-03T03:04:59Z,42.805,6.029,13.2984,4.59994,2470.017,2021-3-03T05:06:04Z
2021-03-03T03:08:02Z,42.805,6.029,13.2985,4.59994,2470.007,2021-3-03T05:09:08Z
2021-03-03T03:11:06Z,42.805,6.029,13.2976,4.59988,2469.993,2021-3-03T05:12:11Z
2021-03-03T03:14:09Z,42.805,6.029,13.2982,4.59993,2469.993,2021-3-03T05:15:14Z
2021-03-03T03:17:12Z,42.805,6.029,13.2986,4.59996,2470.077,2021-3-03T05:18:17Z
2021-03-03T03:20:15Z,42.805,6.029,13.2994,4.60001,2469.984,2021-3-03T05:21:20Z
2021-03-03T03:23:18Z,42.805,6.029,13.2983,4.59997,2470.053,2021-3-03T05:24:23Z
2021-03-03T03:26:21Z,42.805,6.029,13.2988,4.60016,2470.03,2021-3-03T05:27:26Z
2021-03-03T03:29:24Z,42.805,6.029,13.2982,4.60003,2469.993,2021-3-03T05:30:29Z
2021-03-03T03:32:27Z,42.805,6.029,13.2990,4.60014,2470.063,2021-3-03T05:33:32Z
2021-03-03T03:35:30Z,42.805,6.029,13.2989,4.60003,2469.993,2021-3-03T05:36:36Z
2021-03-03T03:38:34Z,42.805,6.029,13.2985,4.60000,2469.993,2021-3-03T05:39:39Z
2021-03-03T03:41:37Z,42.805,6.029,13.2982,4.60005,2470.017,2021-3-03T05:42:42Z
2021-03-03T03:44:40Z,42.805,6.029,13.2985,4.60027,2470.007,2021-3-03T05:45:46Z
2021-03-03T03:47:44Z,42.805,6.029,13.2993,4.60025,2470.017,2021-3-03T05:48:49Z
2021-03-03T03:50:47Z,42.805,6.029,13.2991,4.60003,2470.017,2021-3-03T05:51:52Z
2021-03-03T03:53:50Z,42.805,6.029,13.2980,4.59999,2470.053,2021-3-03T05:54:55Z
2021-03-03T03:56:53Z,42.805,6.029,13.2990,4.60009,2469.97,2021-3-03T05:57:58Z
2021-03-03T03:59:56Z,42.805,6.029,13.2993,4.60016,2469.993,2021-3-03T06:01:01Z
2021-03-03T04:02:59Z,42.805,6.029,13.2992,4.60000,2470.03,2021-3-03T06:04:04Z
2021-03-03T04:06:02Z,42.805,6.029,13.2986,4.60004,2469.96,2021-3-03T06:07:07Z
2021-03-03T04:09:05Z,42.805,6.029,13.2989,4.60007,2469.984,2021-3-03T06:10:11Z
2021-03-03T04:12:09Z,42.805,6.029,13.3000,4.60025,2470.017,2021-3-03T06:13:14Z
2021-03-03T04:15:12Z,42.805,6.029,13.2982,4.60005,2469.993,2021-3-03T06:16:17Z
2021-03-03T04:18:15Z,42.805,6.029,13.2990,4.60000,2469.993,2021-3-03T06:19:20Z
2021-03-03T04:21:18Z,42.805,6.029,13.2984,4.59998,2469.993,2021-3-03T06:22:23Z
2021-03-03T04:24:21Z,42.805,6.029,13.2985,4.59998,2469.993,2021-3-03T06:25:26Z
2021-03-03T04:27:24Z,42.805,6.029,13.2986,4.59996,2470.03,2021-3-03T06:28:29Z
2021-03-03T04:30:27Z,42.805,6.029,13.2982,4.59994,2470.007,2021-3-03T06:31:32Z
2021-03-03T04:33:30Z,42.805,6.029,13.2983,4.59998,2470.03,2021-3-03T06:34:36Z
2021-03-03T04:36:34Z,42.805,6.029,13.2987,4.60001,2470.007,2021-3-03T06:37:39Z
2021-03-03T04:39:37Z,42.805,6.029,13.2985,4.59996,2469.993,2021-3-03T06:40:42Z
2021-03-03T04:42:40Z,42.805,6.029,13.2993,4.59999,2470.003,2021-3-03T06:43:45Z
2021-03-03T04:45:43Z,42.805,6.029,13.2982,4.59994,2470.04,2021-3-03T06:46:48Z
2021-03-03T04:48:46Z,42.805,6.029,13.2982,4.59991,2469.993,2021-3-03T06:49:51Z
2021-03-03T04:51:49Z,42.805,6.029,13.2990,4.60001,2470.017,2021-3-03T06:52:54Z
2021-03-03T04:54:52Z,42.805,6.029,13.2986,4.59996,2470.017,2021-3-03T06:55:57Z
2021-03-03T04:57:55Z,42.805,6.029,13.2988,4.60003,2469.993,2021-3-03T06:59:00Z
2021-03-03T05:00:58Z,42.805,6.029,13.2984,4.59993,2469.993,2021-3-03T07:02:04Z
2021-03-03T05:04:02Z,42.805,6.029,13.2982,4.59999,2470.007,2021-3-03T07:05:07Z
2021-03-03T05:07:05Z,42.805,6.029,13.2986,4.60006,2469.993,2021-3-03T07:08:10Z
2021-03-03T05:10:08Z,42.805,6.029,13.2988,4.60000,2470.03,2021-3-03T07:11:13Z
2021-03-03T05:13:11Z,42.805,6.029,13.2982,4.59999,2470.04,2021-3-03T07:14:16Z
2021-03-03T05:16:14Z,42.805,6.029,13.2982,4.59993,2470.007,2021-3-03T07:17:19Z
2021-03-03T05:19:17Z,42.805,6.029,13.2983,4.59999,2470.017,2021-3-03T07:20:22Z
2021-03-03T05:22:20Z,42.805,6.029,13.2986,4.60009,2470.03,2021-3-03T07:23:25Z
2021-03-03T05:25:23Z,42.805,6.029,13.2988,4.60001,2470.053,2021-3-03T07:26:29Z
2021-03-03T05:28:27Z,42.805,6.029,13.2995,4.60010,2470.017,2021-3-03T07:29:32Z
2021-03-03T05:31:30Z,42.805,6.029,13.2981,4.60022,2470.017,2021-3-03T07:32:35Z
2021-03-03T05:34:33Z,42.805,6.029,13.2986,4.60006,2470.007,2021-3-03T07:35:38Z
2021-03-03T05:37:36Z,42.805,6.029,13.2990,4.60001,2470.063,2021-3-03T07:38:41Z
2021-03-03T05:40:39Z,42.805,6.029,13.2984,4.59995,2469.993,2021-3-03T07:41:44Z
2021-03-03T05:43:42Z,42.805,6.029,13.2991,4.59995,2469.993,2021-3-03T07:44:47Z
2021-03-03T05:46:45Z,42.805,6.029,13.2988,4.60014,2470.053,2021-3-03T07:47:50Z
2021-03-03T05:49:48Z,42.805,6.029,13.2984,4.60003,2470.077,2021-3-03T07:50:54Z
2021-03-03T05:52:51Z,42.805,6.029,13.2983,4.60021,2470.053,2021-3-03T07:53:57Z
2021-03-03T05:55:55Z,42.805,6.029,13.2986,4.60009,2470.04,2021-3-03T07:57:00Z
2021-03-03T05:58:58Z,42.805,6.029,13.2985,4.60001,2470.1,2021-3-03T08:00:03Z
2021-03-03T06:02:01Z,42.805,6.029,13.2982,4.59994,2470.017,2021-3-03T08:03:06Z
2021-03-03T06:05:04Z,42.805,6.029,13.2983,4.60011,2470.017,2021-3-03T08:06:09Z
2021-03-03T06:08:07Z,42.805,6.029,13.2987,4.59993,2470.087,2021-3-03T08:09:12Z
2021-03-03T06:11:10Z,42.805,6.029,13.2987,4.60014,2470.04,2021-3-03T08:12:15Z
2021-03-03T06:14:13Z,42.805,6.029,13.2988,4.60006,2470.063,2021-3-03T08:15:18Z
2021-03-03T06:17:16Z,42.805,6.029,13.2986,4.59999,2470.1,2021-3-03T08:18:22Z
2021-03-03T06:20:20Z,42.805,6.029,13.2980,4.60003,2470.063,2021-3-03T08:21:25Z
2021-03-03T06:23:23Z,42.805,6.029,13.2986,4.60007,2470.053,2021-3-03T08:24:28Z
2021-03-03T06:26:26Z,42.805,6.029,13.2980,4.59999,2470.063,2021-3-03T08:27:31Z
2021-03-03T06:29:29Z,42.805,6.029,13.2992,4.59998,2470.063,2021-3-03T08:30:34Z
2021-03-03T06:32:32Z,42.805,6.029,13.2979,4.59996,2470.063,2021-3-03T08:33:37Z
2021-03-03T06:35:35Z,42.805,6.029,13.2983,4.59999,2470.077,2021-3-03T08:36:40Z
2021-03-03T06:38:38Z,42.805,6.029,13.2986,4.59998,2470.077,2021-3-03T08:39:43Z
2021-03-03T06:41:41Z,42.805,6.029,13.2983,4.59994,2470.087,2021-3-03T08:42:47Z
2021-03-03T06:44:44Z,42.805,6.029,13.2990,4.59995,2470.063,2021-3-03T08:45:50Z
2021-03-03T06:47:48Z,42.805,6.029,13.2986,4.59995,2470.04,2021-3-03T08:48:53Z
2021-03-03T06:50:51Z,42.805,6.029,13.2982,4.59997,2470.1,2021-3-03T08:51:56Z
2021-03-03T06:53:54Z,42.805,6.029,13.2986,4.59994,2470.1,2021-3-03T08:54:59Z
2021-03-03T06:56:57Z,42.805,6.029,13.2986,4.60003,2470.11,2021-3-03T08:58:02Z
2021-03-03T07:00:00Z,42.805,6.029,13.2983,4.60005,2470.1,2021-3-03T09:01:05Z
2021-03-03T07:03:03Z,42.805,6.029,13.2993,4.60015,2470.087,2021-3-03T09:04:08Z
2021-03-03T07:06:06Z,42.805,6.029,13.2986,4.59998,2470.133,2021-3-03T09:07:11Z
2021-03-03T07:09:09Z,42.805,6.029,13.2984,4.60001,2470.1,2021-3-03T09:10:15Z
2021-03-03T07:12:13Z,42.805,6.029,13.2982,4.59998,2470.1,2021-3-03T09:13:18Z
2021-03-03T07:15:16Z,42.805,6.029,13.2988,4.60001,2470.133,2021-3-03T09:16:21Z
2021-03-03T07:18:19Z,42.805,6.029,13.2990,4.60006,2470.124,2021-3-03T09:19:24Z
2021-03-03T07:21:22Z,42.805,6.029,13.2998,4.60013,2470.11,2021-3-03T09:22:27Z
2021-03-03T07:24:25Z,42.805,6.029,13.2991,4.60014,2470.11,2021-3-03T09:25:30Z
2021-03-03T07:27:28Z,42.805,6.029,13.2985,4.59999,2470.147,2021-3-03T09:28:33Z
2021-03-03T07:30:31Z,42.805,6.029,13.2986,4.60013,2470.133,2021-3-03T09:31:36Z
2021-03-03T07:33:34Z,42.805,6.029,13.2986,4.59997,2470.133,2021-3-03T09:34:40Z
2021-03-03T07:36:37Z,42.805,6.029,13.2984,4.60002,2470.11,2021-3-03T09:37:43Z
2021-03-03T07:39:41Z,42.805,6.029,13.2987,4.60013,2470.156,2021-3-03T09:40:46Z
2021-03-03T07:42:44Z,42.805,6.029,13.2984,4.59999,2470.194,2021-3-03T09:43:49Z
2021-03-03T07:45:47Z,42.805,6.029,13.2987,4.59999,2470.156,2021-3-03T09:46:52Z
2021-03-03T07:48:50Z,42.805,6.029,13.3000,4.60014,2470.171,2021-3-03T09:49:55Z
2021-03-03T07:51:53Z,42.805,6.029,13.2991,4.60010,2470.133,2021-3-03T09:52:58Z
2021-03-03T07:54:56Z,42.805,6.029,13.2983,4.59999,2470.156,2021-3-03T09:56:01Z
2021-03-03T07:57:59Z,42.805,6.029,13.2979,4.60017,2470.171,2021-3-03T09:59:04Z
2021-03-03T08:01:02Z,42.805,6.029,13.2991,4.60002,2470.156,2021-3-03T10:02:08Z
2021-03-03T08:04:06Z,42.805,6.029,13.2988,4.60003,2470.143,2021-3-03T10:05:11Z
2021-03-03T08:07:09Z,42.805,6.029,13.2986,4.60006,2470.156,2021-3-03T10:08:14Z
2021-03-03T08:10:12Z,42.805,6.029,13.2992,4.60003,2470.156,2021-3-03T10:11:17Z
2021-03-03T08:13:15Z,42.805,6.029,13.2986,4.59997,2470.194,2021-3-03T10:14:20Z
2021-03-03T08:16:18Z,42.805,6.029,13.2986,4.60004,2470.203,2021-3-03T10:17:23Z
2021-03-03T08:19:21Z,42.805,6.029,13.2986,4.60011,2470.194,2021-3-03T10:20:26Z
2021-03-03T08:22:24Z,42.805,6.029,13.2985,4.60025,2470.203,2021-3-03T10:23:29Z
2021-03-03T08:25:27Z,42.805,6.029,13.2987,4.60002,2470.156,2021-3-03T10:26:33Z
2021-03-03T08:28:31Z,42.805,6.029,13.2983,4.60009,2470.18,2021-3-03T10:29:36Z
2021-03-03T08:31:34Z,42.805,6.029,13.2984,4.60001,2470.217,2021-3-03T10:32:39Z
2021-03-03T08:34:37Z,42.805,6.029,13.2982,4.59995,2470.18,2021-3-03T10:35:42Z
2021-03-03T08:37:40Z,42.805,6.029,13.2983,4.60000,2470.171,2021-3-03T10:38:45Z
2021-03-03T08:40:43Z,42.805,6.029,13.2994,4.60026,2470.227,2021-3-03T10:41:48Z
2021-03-03T08:43:46Z,42.805,6.029,13.2983,4.60020,2470.194,2021-3-03T10:44:51Z
2021-03-03T08:46:49Z,42.805,6.029,13.2993,4.60015,2470.18,2021-3-03T10:47:54Z
2021-03-03T08:49:52Z,42.805,6.029,13.2986,4.60005,2470.264,2021-3-03T10:50:58Z
2021-03-03T08:52:56Z,42.805,6.029,13.2993,4.60016,2470.217,2021-3-03T10:54:01Z
2021-03-03T08:55:59Z,42.805,6.029,13.2987,4.60006,2470.217,2021-3-03T10:57:04Z
2021-03-03T08:59:02Z,42.805,6.029,13.3001,4.60009,2470.203,2021-3-03T11:00:07Z
2021-03-03T09:02:05Z,42.805,6.029,13.2992,4.60029,2470.24,2021-3-03T11:03:10Z
2021-03-03T09:05:08Z,42.805,6.029,13.2983,4.60006,2470.227,2021-3-03T11:06:13Z
2021-03-03T09:08:11Z,42.805,6.029,13.2993,4.60001,2470.203,2021-3-03T11:09:16Z
2021-03-03T09:11:14Z,42.805,6.029,13.2986,4.59999,2470.217,2021-3-03T11:12:19Z
2021-03-03T09:14:17Z,42.805,6.029,13.2988,4.60001,2470.203,2021-3-03T11:15:23Z
2021-03-03T09:17:20Z,42.805,6.029,13.2987,4.60007,2470.203,2021-3-03T11:18:26Z
2021-03-03T09:20:24Z,42.805,6.029,13.2988,4.59999,2470.24,2021-3-03T11:21:29Z
2021-03-03T09:23:27Z,42.805,6.029,13.2989,4.60001,2470.203,2021-3-03T11:24:32Z
2021-03-03T09:26:30Z,42.805,6.029,13.2981,4.59994,2470.203,2021-3-03T11:27:35Z
2021-03-03T09:29:33Z,42.805,6.029,13.2984,4.60001,2470.227,2021-3-03T11:30:38Z
2021-03-03T09:32:36Z,42.805,6.029,13.2987,4.60014,2470.203,2021-3-03T11:33:41Z
2021-03-03T09:35:39Z,42.805,6.029,13.2997,4.60021,2470.227,2021-3-03T11:36:44Z
2021-03-03T09:38:42Z,42.805,6.029,13.2990,4.60014,2470.227,2021-3-03T11:39:48Z
2021-03-03T09:41:45Z,42.805,6.029,13.2990,4.60021,2470.25,2021-3-03T11:42:51Z
2021-03-03T09:44:49Z,42.805,6.029,13.2984,4.60032,2470.227,2021-3-03T11:45:54Z
2021-03-03T09:47:52Z,42.805,6.029,13.2987,4.60004,2470.217,2021-3-03T11:48:57Z
2021-03-03T09:50:55Z,42.805,6.029,13.2984,4.60001,2470.203,2021-3-03T11:52:00Z
2021-03-03T09:53:58Z,42.805,6.029,13.2996,4.60029,2470.227,2021-3-03T11:55:03Z
2021-03-03T09:57:01Z,42.805,6.029,13.2992,4.60032,2470.203,2021-3-03T11:58:06Z
2021-03-03T10:00:04Z,42.805,6.029,13.2985,4.60001,2470.227,2021-3-03T12:01:09Z
2021-03-03T10:03:07Z,42.805,6.029,13.2991,4.60006,2470.217,2021-3-03T12:04:13Z
2021-03-03T10:06:10Z,42.805,6.029,13.2989,4.60023,2470.227,2021-3-03T12:07:16Z
2021-03-03T10:09:14Z,42.805,6.029,13.2985,4.60011,2470.25,2021-3-03T12:10:19Z
2021-03-03T10:12:17Z,42.805,6.029,13.2995,4.60013,2470.203,2021-3-03T12:13:22Z
2021-03-03T10:15:20Z,42.805,6.029,13.3001,4.60029,2470.203,2021-3-03T12:16:25Z
2021-03-03T10:18:23Z,42.805,6.029,13.2990,4.60030,2470.203,2021-3-03T12:19:28Z
2021-03-03T10:21:26Z,42.805,6.029,13.3002,4.60026,2470.227,2021-3-03T12:22:31Z
2021-03-03T10:24:29Z,42.805,6.029,13.2988,4.60003,2470.217,2021-3-03T12:25:34Z
2021-03-03T10:27:32Z,42.805,6.029,13.2988,4.60011,2470.217,2021-3-03T12:28:38Z
2021-03-03T10:30:35Z,42.805,6.029,13.2987,4.60001,2470.203,2021-3-03T12:31:41Z
2021-03-03T10:33:39Z,42.805,6.029,13.2984,4.60003,2470.227,2021-3-03T12:34:44Z
2021-03-03T10:36:42Z,42.805,6.029,13.2986,4.59996,2470.217,2021-3-03T12:37:47Z
2021-03-03T10:39:45Z,42.805,6.029,13.2994,4.60006,2470.227,2021-3-03T12:40:50Z
2021-03-03T10:42:48Z,42.805,6.029,13.2992,4.60019,2470.189,2021-3-03T12:43:53Z
2021-03-03T10:45:51Z,42.805,6.029,13.2990,4.60018,2470.203,2021-3-03T12:46:56Z
2021-03-03T10:48:54Z,42.805,6.029,13.2989,4.60000,2470.203,2021-3-03T12:49:59Z
2021-03-03T10:51:57Z,42.805,6.029,13.2983,4.60005,2470.203,2021-3-03T12:53:03Z
2021-03-03T10:55:00Z,42.805,6.029,13.2983,4.59999,2470.227,2021-3-03T12:56:06Z
2021-03-03T10:58:04Z,42.805,6.029,13.2990,4.60003,2470.217,2021-3-03T12:59:09Z
2021-03-03T11:01:07Z,42.805,6.029,13.2984,4.59999,2470.18,2021-3-03T13:02:12Z
2021-03-03T11:04:10Z,42.805,6.029,13.2990,4.60003,2470.18,2021-3-03T13:05:15Z
2021-03-03T11:07:13Z,42.805,6.029,13.2997,4.60027,2470.18,2021-3-03T13:08:18Z
2021-03-03T11:10:16Z,42.805,6.029,13.3013,4.60021,2470.18,2021-3-03T13:11:21Z
2021-03-03T11:13:19Z,42.805,6.029,13.3014,4.60031,2470.217,2021-3-03T13:14:24Z
2021-03-03T11:16:22Z,42.805,6.029,13.2983,4.60009,2470.18,2021-3-03T13:17:27Z
2021-03-03T11:19:25Z,42.805,6.029,13.2992,4.60029,2470.156,2021-3-03T13:20:31Z
2021-03-03T11:22:29Z,42.805,6.029,13.3002,4.60031,2470.18,2021-3-03T13:23:34Z
2021-03-03T11:25:32Z,42.805,6.029,13.2998,4.60021,2470.171,2021-3-03T13:26:37Z
2021-03-03T11:28:35Z,42.805,6.029,13.3004,4.60010,2470.194,2021-3-03T13:29:40Z
2021-03-03T11:31:38Z,42.805,6.029,13.3003,4.60017,2470.203,2021-3-03T13:32:43Z
2021-03-03T11:34:41Z,42.805,6.029,13.2999,4.60036,2470.194,2021-3-03T13:35:46Z
2021-03-03T11:37:44Z,42.805,6.029,13.2983,4.60017,2470.217,2021-3-03T13:38:49Z
2021-03-03T11:40:47Z,42.805,6.029,13.2991,4.60009,2470.147,2021-3-03T13:41:53Z
2021-03-03T11:43:50Z,42.805,6.029,13.2990,4.60008,2470.166,2021-3-03T13:44:56Z
2021-03-03T11:46:54Z,42.805,6.029,13.2986,4.59999,2470.217,2021-3-03T13:47:59Z
2021-03-03T11:49:57Z,42.805,6.029,13.2991,4.60026,2470.194,2021-3-03T13:51:02Z
2021-03-03T11:53:00Z,42.805,6.029,13.2982,4.60004,2470.18,2021-3-03T13:54:05Z
2021-03-03T11:56:03Z,42.805,6.029,13.2991,4.60011,2470.133,2021-3-03T13:57:08Z
2021-03-03T11:59:06Z,42.805,6.029,13.2993,4.60029,2470.156,2021-3-03T14:00:11Z
2021-03-03T12:02:09Z,42.805,6.029,13.2999,4.60027,2470.156,2021-3-03T14:03:14Z
2021-03-03T12:05:12Z,42.805,6.029,13.2998,4.60016,2470.124,2021-3-03T14:06:17Z
2021-03-03T12:08:15Z,42.805,6.029,13.2996,4.60018,2470.18,2021-3-03T14:09:21Z
2021-03-03T12:11:19Z,42.805,6.029,13.3000,4.60016,2470.133,2021-3-03T14:12:24Z
2021-03-03T12:14:22Z,42.805,6.029,13.2988,4.59997,2470.156,2021-3-03T14:15:27Z
2021-03-03T12:17:25Z,42.805,6.029,13.2987,4.60004,2470.147,2021-3-03T14:18:30Z
2021-03-03T12:20:28Z,42.805,6.029,13.2991,4.60021,2470.156,2021-3-03T14:21:33Z
2021-03-03T12:23:31Z,42.805,6.029,13.2991,4.60031,2470.171,2021-3-03T14:24:36Z
2021-03-03T12:26:34Z,42.805,6.029,13.2990,4.60021,2470.133,2021-3-03T14:27:39Z
2021-03-03T12:29:37Z,42.805,6.029,13.2991,4.60019,2470.11,2021-3-03T14:30:43Z
2021-03-03T12:32:40Z,42.805,6.029,13.2990,4.60008,2470.124,2021-3-03T14:33:46Z
2021-03-03T12:35:44Z,42.805,6.029,13.2984,4.60003,2470.133,2021-3-03T14:36:49Z
2021-03-03T12:38:47Z,42.805,6.029,13.2999,4.60015,2470.133,2021-3-03T14:39:52Z
2021-03-03T12:41:50Z,42.805,6.029,13.3000,4.60018,2470.133,2021-3-03T14:42:55Z
2021-03-03T12:44:53Z,42.805,6.029,13.2991,4.60037,2470.087,2021-3-03T14:45:58Z
2021-03-03T12:47:56Z,42.805,6.029,13.2989,4.60021,2470.11,2021-3-03T14:49:01Z
2021-03-03T12:50:59Z,42.805,6.029,13.2987,4.59998,2470.11,2021-3-03T14:52:04Z
2021-03-03T12:54:02Z,42.805,6.029,13.2996,4.60016,2470.11,2021-3-03T14:55:07Z
2021-03-03T12:57:05Z,42.805,6.029,13.2996,4.60003,2470.133,2021-3-03T14:58:11Z
2021-03-03T13:00:09Z,42.805,6.029,13.2994,4.60026,2470.11,2021-3-03T15:01:14Z
2021-03-03T13:03:12Z,42.805,6.029,13.2996,4.60040,2470.1,2021-3-03T15:04:17Z
2021-03-03T13:06:15Z,42.805,6.029,13.2986,4.60005,2470.11,2021-3-03T15:07:20Z
2021-03-03T13:09:18Z,42.805,6.029,13.3001,4.60029,2470.063,2021-3-03T15:10:23Z
2021-03-03T13:12:21Z,42.805,6.029,13.2987,4.60009,2470.1,2021-3-03T15:13:26Z
2021-03-03T13:15:24Z,42.805,6.029,13.2990,4.60012,2470.11,2021-3-03T15:16:29Z
2021-03-03T13:18:27Z,42.805,6.029,13.2982,4.60011,2470.087,2021-3-03T15:19:32Z
2021-03-03T13:21:30Z,42.805,6.029,13.2991,4.60019,2470.11,2021-3-03T15:22:36Z
2021-03-03T13:24:34Z,42.805,6.029,13.3009,4.60039,2470.087,2021-3-03T15:25:39Z
2021-03-03T13:27:37Z,42.805,6.029,13.2991,4.60039,2470.11,2021-3-03T15:28:42Z
2021-03-03T13:30:40Z,42.805,6.029,13.2993,4.60020,2470.087,2021-3-03T15:31:45Z
2021-03-03T13:33:43Z,42.805,6.029,13.2990,4.60005,2470.063,2021-3-03T15:34:48Z
2021-03-03T13:36:46Z,42.805,6.029,13.2996,4.60008,2470.11,2021-3-03T15:37:51Z
2021-03-03T13:39:49Z,42.805,6.029,13.2988,4.60009,2470.1,2021-3-03T15:40:54Z
2021-03-03T13:42:52Z,42.805,6.029,13.2991,4.60004,2470.1,2021-3-03T15:43:57Z
2021-03-03T13:45:55Z,42.805,6.029,13.2993,4.60012,2470.077,2021-3-03T15:47:01Z
2021-03-03T13:48:59Z,42.805,6.029,13.2986,4.60011,2470.1,2021-3-03T15:50:04Z
2021-03-03T13:52:02Z,42.805,6.029,13.2984,4.60009,2470.063,2021-3-03T15:53:07Z
2021-03-03T13:55:05Z,42.805,6.029,13.2993,4.60021,2470.063,2021-3-03T15:56:10Z
2021-03-03T13:58:08Z,42.805,6.029,13.3002,4.60031,2470.053,2021-3-03T15:59:13Z
2021-03-03T14:01:11Z,42.805,6.029,13.2991,4.60020,2470.053,2021-3-03T16:02:16Z
2021-03-03T14:04:14Z,42.805,6.029,13.2991,4.60034,2470.077,2021-3-03T16:05:19Z
2021-03-03T14:07:17Z,42.805,6.029,13.3004,4.60033,2470.063,2021-3-03T16:08:22Z
2021-03-03T14:10:20Z,42.805,6.029,13.2998,4.60039,2470.017,2021-3-03T16:11:26Z
2021-03-03T14:13:24Z,42.805,6.029,13.2997,4.60026,2470.1,2021-3-03T16:14:29Z
2021-03-03T14:16:27Z,42.805,6.029,13.2986,4.60046,2470.077,2021-3-03T16:17:32Z
2021-03-03T14:19:30Z,42.805,6.029,13.3003,4.60039,2470.063,2021-3-03T16:20:35Z
2021-03-03T14:22:33Z,42.805,6.029,13.2991,4.60021,2470.063,2021-3-03T16:23:38Z
2021-03-03T14:25:36Z,42.805,6.029,13.2987,4.60006,2470.03,2021-3-03T16:26:41Z
2021-03-03T14:28:39Z,42.805,6.029,13.2995,4.60041,2470.087,2021-3-03T16:29:44Z
2021-03-03T14:31:42Z,42.805,6.029,13.2991,4.60031,2470.04,2021-3-03T16:32:47Z
2021-03-03T14:34:45Z,42.805,6.029,13.2987,4.60016,2470.04,2021-3-03T16:35:51Z
2021-03-03T14:37:49Z,42.805,6.029,13.2986,4.60006,2470.017,2021-3-03T16:38:54Z
2021-03-03T14:40:52Z,42.805,6.029,13.2993,4.60012,2470.04,2021-3-03T16:41:57Z
2021-03-03T14:43:55Z,42.805,6.029,13.2990,4.60021,2470.017,2021-3-03T16:45:00Z
2021-03-03T14:46:58Z,42.805,6.029,13.3004,4.60030,2470.04,2021-3-03T16:48:03Z
2021-03-03T14:50:01Z,42.805,6.029,13.2994,4.60006,2470.017,2021-3-03T16:51:06Z
2021-03-03T14:53:04Z,42.805,6.029,13.2992,4.60004,2470.007,2021-3-03T16:54:09Z
2021-03-03T14:56:07Z,42.805,6.029,13.2986,4.60003,2470.03,2021-3-03T16:57:12Z
2021-03-03T14:59:10Z,42.805,6.029,13.2999,4.60013,2469.993,2021-3-03T17:00:16Z
2021-03-03T15:02:14Z,42.805,6.029,13.2992,4.60032,2470.03,2021-3-03T17:03:19Z
2021-03-03T15:05:17Z,42.805,6.029,13.2995,4.60023,2470.007,2021-3-03T17:06:22Z
2021-03-03T15:08:20Z,42.805,6.029,13.2993,4.60031,2469.993,2021-3-03T17:09:25Z
2021-03-03T15:11:23Z,42.805,6.029,13.2990,4.60016,2470.017,2021-3-03T17:12:28Z
2021-03-03T15:14:26Z,42.805,6.029,13.2996,4.60032,2469.96,2021-3-03T17:15:31Z